Location: Miami
(39.3214°N, 93.2282°W)
Time: 15:20:18
(UTC+00:00)

BlueWalker 3 - Visible Passes

Search period start: 21 June 2024 00:00
Search period end: 01 July 2024 00:00
Orbit: 480 x 494 km, 53.2° (Epoch: 21 June)

Date Brightness Start Highest point End Pass type
(mag) Time Alt. Az. Time Alt. Az. Time Alt. Az.
21 Jun 3.7 03:13:20 10° W 03:16:46 33° NNW 03:20:12 10° NE visible
21 Jun 5.4 04:54:29 10° NW 04:55:52 12° NNW 04:57:14 10° N visible
21 Jun 5.5 06:34:33 10° N 06:35:27 11° N 06:36:22 10° NNE visible
21 Jun 4.1 08:11:26 10° NNW 08:14:40 27° NNE 08:17:54 10° E visible
21 Jun 2.2 09:49:23 10° WNW 09:52:55 42° SW 09:56:27 10° SSE visible
22 Jun 3.7 02:47:34 10° W 02:51:03 35° NNW 02:54:32 10° NE visible
22 Jun 5.3 04:28:37 10° NW 04:30:06 12° NNW 04:31:35 10° N visible
22 Jun 5.4 06:08:55 10° N 06:09:43 10° N 06:10:29 10° NNE visible
22 Jun 4.1 07:45:46 10° NNW 07:48:57 26° NNE 07:52:07 10° E visible
22 Jun 2.1 09:23:39 10° WNW 09:27:14 45° SW 09:30:48 10° SSE visible
23 Jun 3.6 02:21:48 10° WSW 02:25:19 38° NW 02:28:51 10° NE visible
23 Jun 5.2 04:02:45 10° NW 04:04:21 12° NNW 04:05:56 10° N visible
23 Jun 5.4 05:43:18 10° N 05:43:56 10° N 05:44:34 10° NNE visible
23 Jun 4.2 07:20:05 10° NNW 07:23:12 24° NNE 07:26:19 10° E visible
23 Jun 1.9 08:57:54 10° WNW 09:01:32 49° SW 09:05:08 10° SSE visible
24 Jun 5.1 03:36:53 10° NW 03:38:35 13° NNW 03:40:16 10° NNE visible
24 Jun 5.3 05:17:42 10° N 05:18:10 10° N 05:18:38 10° NNE visible
24 Jun 4.2 06:54:24 10° NNW 06:57:27 23° NNE 07:00:31 10° E visible
24 Jun 2.6 08:32:10 10° WNW 08:34:43 38° W 08:34:43 38° W visible
25 Jun 5.0 03:11:01 10° NW 03:12:48 13° NNW 03:14:35 10° NNE visible
25 Jun 5.3 04:52:10 10° N 04:52:23 10° N 04:52:36 10° N visible
25 Jun 4.2 06:28:43 10° NNW 06:31:42 22° NNE 06:33:15 17° ENE visible
25 Jun 3.9 08:06:25 10° NW 08:07:29 18° WNW 08:07:29 18° WNW visible
26 Jun 5.0 02:45:08 10° NW 02:47:01 13° NNW 02:48:54 10° NNE visible
26 Jun 4.2 06:03:00 10° NNW 06:05:56 21° NNE 06:07:01 19° NE visible
26 Jun 4.3 07:40:40 10° NW 07:41:17 14° NW 07:41:17 14° NW visible
27 Jun 4.9 02:19:15 10° NW 02:21:14 14° NNW 02:23:12 10° NNE visible
27 Jun 4.2 05:37:18 10° NNW 05:40:09 20° NNE 05:41:12 18° NE visible
27 Jun 4.4 07:14:54 10° NW 07:15:29 14° NW 07:15:29 14° NW visible
28 Jun 4.2 05:11:35 10° NNW 05:14:22 19° NNE 05:15:35 17° NE visible
28 Jun 4.4 06:49:09 10° NW 06:49:54 15° NW 06:49:54 15° NW visible
29 Jun 4.3 04:45:51 10° NNW 04:48:34 19° NNE 04:50:08 15° NE visible
29 Jun 4.3 06:23:23 10° NW 06:24:27 18° NW 06:24:27 18° NW visible
30 Jun 4.3 04:20:07 10° NNW 04:22:46 18° NNE 04:24:46 13° ENE visible
30 Jun 4.0 05:57:37 10° NW 05:59:04 22° NW 05:59:04 22° NW visible
